This is the latest recevied weather packets stored in our database for station/object AB4KY. If no packets are shown the sender has not sent any weather packets the latest 10 day(s).
| Time | Temp. | Humidity | Pressure | Rain* | Wind** | Luminosity | Snow |
|---|---|---|---|---|---|---|---|
| 1777663628 | 15° C | 54% | 1013 hPa | 0 mm | - | 525 W/m² | - |
| 1777663325 | 15° C | 55% | 1013.1 hPa | 0 mm | - | 614 W/m² | - |
| 1777663022 | 14.44° C | 57% | 1012.9 hPa | 0 mm | - | 689 W/m² | - |
| 1777662719 | 12.78° C | 55% | 1012.9 hPa | 0 mm | - | 229 W/m² | - |
| 1777662415 | 12.78° C | 53% | 1012.9 hPa | 0 mm | - | 159 W/m² | - |
| 1777662111 | 13.33° C | 57% | 1013 hPa | 0 mm | - | 214 W/m² | - |
| 1777661807 | 14.44° C | 56% | 1012.7 hPa | 0 mm | - | 192 W/m² | - |
| 1777661502 | 13.89° C | 56% | 1012.5 hPa | 0 mm | - | 804 W/m² | - |
| 1777661199 | 15.56° C | 50% | 1012.6 hPa | 0 mm | - | 788 W/m² | - |
| 1777660894 | 15° C | 54% | 1012.5 hPa | 0 mm | - | 607 W/m² | - |
| 1777660591 | 13.33° C | 53% | 1012.7 hPa | 0 mm | - | 532 W/m² | - |
| 1777660287 | 13.89° C | 55% | 1013 hPa | 0 mm | - | 125 W/m² | - |
| 1777659984 | 15.56° C | 58% | 1012.8 hPa | 0 mm | - | 132 W/m² | - |
| 1777659681 | 16.11° C | 59% | 1012.7 hPa | 0 mm | - | 705 W/m² | - |
| 1777659378 | 15.56° C | 55% | 1013 hPa | 0 mm | - | 662 W/m² | - |
| 1777659075 | 14.44° C | 59% | 1012.8 hPa | 0 mm | - | 559 W/m² | - |
| 1777658773 | 13.89° C | 61% | 1012.7 hPa | 0 mm | - | 592 W/m² | - |
| 1777658469 | 13.33° C | 65% | 1012.9 hPa | 0 mm | - | 254 W/m² | - |
| 1777658166 | 13.33° C | 62% | 1012.9 hPa | 0 mm | - | 236 W/m² | - |
| 1777657863 | 12.78° C | 65% | 1012.9 hPa | 0 mm | - | 133 W/m² | - |
| 1777657559 | 12.78° C | 62% | 1013 hPa | 0 mm | - | 84 W/m² | - |
| 1777657257 | 13.89° C | 58% | 1012.9 hPa | 0 mm | - | 75 W/m² | - |
| 1777656954 | 15.56° C | 54% | 1012.6 hPa | 0 mm | - | 171 W/m² | - |
| 1777656650 | 15° C | 55% | 1012.6 hPa | 0 mm | - | 754 W/m² | - |
| 1777656346 | 14.44° C | 61% | 1012.7 hPa | 0 mm | - | 175 W/m² | - |
* Rain latest hour (hover to see other rain measurements)
** Current wind speed in m/s (hover to see current wind gust speed)